Voltar ao catálogo

OPS 3674

VELA 4

AtivoMilitarHEO
NORAD 837·PAYLOAD·🇺🇸 United States

Lançado Jul 17, 1964 de Cape Canaveral Space Force Station

Loading…

Próximas Passagens (próximas 24 horas)

TLE

AtualizadoSource: Space-Track

Época: Sep 8, 2026, 23:29 UTC

1   837U 64040B   26251.97856733 -.00000379  00000-0  00000+0 0  9995
2   837  48.4640 118.3473 6482601 256.8326   0.5778  0.24005192 54922

Acompanhe OPS 3674 em tempo real com AllMySat

Download on the App Store